Погода в Байрамгулове

Россия / Челябинская область     55°22′30″N   60°30′23″E
темп.,
°C
ветер,
м/с
пор.,
м/с
влажн.,
%
обл.,
%
осадки,
мм/ч
давл.,
гПа
погр.,
м
8 марта, пн
пн823:00−16зсз4119155 0.6 1009272
02:00−18з35920 0.0 1010111
05:00−19юз22930 0.0 101120
08:00−18ююз239437 0.0 101082
11:00−13ю478668 0.0 1008315
14:00−8ююз61083100 0.3 1005687
17:00−6ююз4893100 0.5 1004625
20:00−8ю4108787 0.1 1003219
9 марта, вт
вт923:00−6юз3119087 0.4 1005911
02:00−10ююз410877 0.0 1006251
05:00−12ююз239336 0.0 100549
08:00−10ююз4109268 0.0 1003260
11:00−3зюз7128459 0.4 10031371
14:00−4з7117528 0.1 10061269
17:00−5з597533 0.1 10081063
20:00−11зюз238727 0.0 101123
10 марта, ср
ср1023:00−13зюз129162 0.0 101220
02:00−14ююв0192100 0.0 101120
05:00−14в1194100 0.0 100920
08:00−13всв2496100 0.3 1007170
11:00−10всв3694100 1.4 1004395
14:00−8всв4793100 1.2 1001533
17:00−8св61094100 2.6 999603
20:00−9св71294100 1.4 999752
11 марта, чт
чт1123:00−12ссв71393100 2.6 1001688
02:00−14с61294100 1.4 1003682
05:00−16ссз51094100 2.2 1006609
08:00−17сз51093100 0.5 1009515
11:00−16сз51077100 0.5 1012598
14:00−13зсз6108182 0.0 1013703
17:00−15зсз6118257 0.0 1014741
20:00−17зсз5138689 0.0 1016574
12 марта, пт
пт1223:00−18зсз5138595 0.0 1018491
02:00−18зсз61583100 0.0 1019474
05:00−17зсз61584100 0.0 1019501
08:00−17зсз6168488 0.0 1020534
11:00−14зсз7148354 0.0 1022593
14:00−11зсз613800 0.0 1022648
17:00−10зсз611810 0.0 1023745
20:00−13зсз514850 0.0 1025589